Weather History for Muenchen-Stadt, Germany

Change the Weather History Date:

Wednesday, January 8, 2014

  Actual Average Record
Temperature  
Mean Temperature 50 °F -  
Max Temperature 58 °F 35 °F - ()
Min Temperature 42 °F 23 °F - ()
Degree Days  
Heating Degree Days 15    
Moisture  
Dew Point 39 °F    
Average Humidity 58    
Maximum Humidity 81    
Minimum Humidity 43    
Precipitation  
Precipitation 0.01 in - - ()
Sea Level Pressure  
Sea Level Pressure 30.20 in    
Wind  
Wind Speed 5 mph ()    
Max Wind Speed 9 mph    
Max Gust Speed -    
Visibility 15.2 miles    
Events Rain    
T = Trace of Precipitation, MM = Missing Value Source: Averaged Metar Reports

Daily Weather History Graph

Daily Weather History Graph

Search for Another Location

Airport:

Trip Planner

Search our weather history database for the weather conditions in past years. The results will help you decide how hot, cold, wet, or windy it might be!

Date:

Astronomy

Jan. 08, 2014 Rise Set
Actual Time 8:03 AM CET 4:38 PM CET
Civil Twilight 7:27 AM CET 5:14 PM CET
Nautical Twilight 6:47 AM CET 5:53 PM CET
Astronomical Twilight 6:10 AM CET 6:30 PM CET
Moon 11:37 AM CET (1/8) 12:32 AM CET (1/8)
Length of Visible Light 9h 46m
Length of Day
8h 35m
First Quarter, 53% of the Moon is Illuminated
Jan 8
First Quarter
Jan 16
Full
Jan 24
Last Quarter
Jan 30
New
Feb 6
First Quarter

Hourly Weather History & Observations

Time (CET) Temp. Dew Point Humidity Pressure Visibility Wind Dir Wind Speed Gust Speed Precip Events Conditions
12:00 AM 46 °F 35 °F 55% 30.14 in 44 mi West 2.2 mph - -  
1:00 AM 44 °F 36 °F 63% 30.17 in 44 mi West 4.5 mph - -  
2:00 AM 46 °F 35 °F 56% 30.16 in 44 mi SSW 6.7 mph - -  
3:00 AM 46 °F 35 °F 56% 30.17 in 44 mi South 4.5 mph - -   Overcast
4:00 AM 47 °F 35 °F 52% 30.18 in 44 mi SSW 6.7 mph - -   Overcast
5:00 AM 46 °F 35 °F 55% 30.21 in 44 mi WNW 4.5 mph - -   Overcast
6:00 AM 46 °F 38 °F 63% 30.21 in 44 mi South 6.7 mph - - Rain Rain
7:00 AM 47 °F 38 °F 61% 30.21 in 44 mi SSW 6.7 mph - - Rain Rain
8:00 AM 47 °F 38 °F 63% 30.23 in 44 mi SSW 6.7 mph - - Rain Rain
9:00 AM 46 °F 38 °F 63% 30.25 in 44 mi South 4.5 mph - -   Partly Cloudy
10:00 AM 49 °F 38 °F 55% 30.25 in 44 mi SSW 6.7 mph - -   Clear
11:00 AM 54 °F 40 °F 49% 30.25 in 12 mi WSW 6.7 mph - -  
12:00 PM 57 °F 41 °F 43% 30.22 in 14 mi West 8.9 mph - -  
1:00 PM 58 °F 41 °F 43% 30.20 in 16 mi West 8.9 mph - -   Clear
2:00 PM 58 °F 42 °F 44% 30.18 in 22 mi West 8.9 mph - -  
3:00 PM 58 °F 42 °F 44% 30.17 in 44 mi West 6.7 mph - -  
4:00 PM 57 °F 42 °F 47% 30.17 in 44 mi WSW 2.2 mph - -   Partly Cloudy
5:00 PM 50 °F 41 °F 63% 30.21 in 25 mi WNW 2.2 mph - -  
6:00 PM 48 °F 41 °F 69% 30.20 in 19 mi SW 4.5 mph - -  
7:00 PM 46 °F 40 °F 73% 30.21 in 22 mi SSE 4.5 mph - -  
8:00 PM 47 °F 41 °F 71% 30.20 in 31 mi South 4.5 mph - -   Mostly Cloudy
9:00 PM 46 °F 40 °F 72% 30.20 in 28 mi SSE 4.5 mph - -  
10:00 PM 42 °F 38 °F 81% 30.21 in 25 mi SSE 4.5 mph - -   Mostly Cloudy